Location: Newark
(35.6799°N, 139.7636°E)
Time: 20:13:22
(UTC+00:00)

Vanguard 1 Rocket - Pass Details

Date: 13 December 2019
Orbit: 651 x 4226 km, 34.3° (Epoch: 28 January)

Event Time Altitude Azimuth Distance (km) Brightness Sun altitude
Rises 10:48:15 0° 242° (WSW) 8,334 13.0 -39.8°
Reaches altitude 10° 10:54:29 10° 241° (WSW) 7,053 12.4 -41.0°
Enters shadow 11:15:15 70° 180° (S) 2,779 9.5 -45.2°
